GW7842 Weather Reports


time (UTC)temp
C
wind
direction
speed
KPH
gust
KPH
rain 1hr
cm
rain 24hr
cm
rain mn
cm
humidity
%
barometer
mb
20260906121205 21 289 0.0 1.6 0.00 0.00 0.00 93 999.1
20260906120705 21 300 0.0 1.6 0.00 0.00 0.00 93 998.7
20260906120205 21 288 0.0 1.6 0.00 0.00 0.00 93 998.7
20260906115705 21 307 0.0 1.6 0.00 0.00 0.00 93 998.6
20260906115205 21 306 0.0 1.6 0.00 0.00 0.00 93 998.6
20260906114705 21 268 0.0 0.0 0.00 0.00 0.00 93 998.5
20260906114205 21 268 0.0 0.0 0.00 0.00 0.00 94 998.6
20260906113705 21 268 0.0 0.0 0.00 0.00 0.00 94 998.5
20260906113206 20 268 0.0 1.6 0.00 0.00 0.00 94 998.4
20260906112705 20 268 0.0 1.6 0.00 0.00 0.00 94 998.3
20260906112205 20 268 0.0 0.0 0.00 0.00 0.00 94 998.0
20260906111205 20 268 0.0 0.0 0.00 0.00 0.00 94 998.2
20260906110705 20 270 0.0 1.6 0.00 0.00 0.00 94 998.1
20260906110205 20 283 0.0 1.6 0.00 0.00 0.00 95 998.2
20260906105705 20 283 0.0 0.0 0.00 0.00 0.00 94 998.2
20260906105205 20 286 0.0 0.0 0.00 0.00 0.00 94 997.9
20260906104705 20 286 0.0 0.0 0.00 0.00 0.00 94 997.8
20260906104205 20 286 0.0 0.0 0.00 0.00 0.00 94 997.7
20260906103705 20 286 0.0 0.0 0.00 0.00 0.00 94 997.7
20260906103205 20 286 0.0 0.0 0.00 0.00 0.00 94 997.8
20260906102705 20 286 0.0 0.0 0.00 0.00 0.00 94 997.7
20260906102205 20 286 0.0 0.0 0.00 0.00 0.00 94 997.7
20260906101205 21 286 0.0 0.0 0.00 0.00 0.00 93 997.7
20260906100705 21 286 0.0 0.0 0.00 0.00 0.00 93 997.6
20260906095705 21 286 0.0 0.0 0.00 0.00 0.00 93 997.6
20260906095205 21 286 0.0 0.0 0.00 0.00 0.00 93 997.6
20260906094205 21 286 0.0 0.0 0.00 0.00 0.00 93 997.5
20260906093705 21 286 0.0 0.0 0.00 0.00 0.00 92 997.5
20260906093205 21 286 0.0 0.0 0.00 0.00 0.00 92 997.5
20260906092704 21 286 0.0 0.0 0.00 0.00 0.00 92 997.5
20260906092205 21 286 0.0 0.0 0.00 0.00 0.00 92 997.5
20260906091705 21 286 0.0 0.0 0.00 0.00 0.00 92 997.4
20260906091205 21 286 0.0 1.6 0.00 0.00 0.00 92 997.3
20260906090705 21 288 0.0 1.6 0.00 0.00 0.00 92 997.3
20260906085705 21 300 0.0 1.6 0.00 0.00 0.00 92 997.4
20260906085205 21 300 0.0 1.6 0.00 0.00 0.00 92 997.4
20260906084705 21 296 0.0 1.6 0.00 0.00 0.00 92 997.4
20260906084204 21 297 0.0 1.6 0.00 0.00 0.00 91 997.4
20260906083205 21 297 0.0 0.0 0.00 0.00 0.00 91 997.4
20260906082204 22 297 0.0 0.0 0.00 0.00 0.00 90 997.3
20260906081705 22 297 0.0 1.6 0.00 0.00 0.00 90 997.4
20260906080204 22 297 0.0 0.0 0.00 0.00 0.00 90 997.6
20260906075205 22 297 0.0 1.6 0.00 0.00 0.00 89 997.5
20260906074705 22 295 0.0 1.6 0.00 0.00 0.00 89 997.5
20260906074204 22 272 0.0 1.6 0.00 0.00 0.00 89 997.5
20260906073205 22 322 0.0 4.8 0.00 0.00 0.00 89 997.5
20260906072704 22 343 1.6 4.8 0.00 0.00 0.00 89 997.5
20260906072205 22 306 0.0 4.8 0.00 0.00 0.00 89 997.5
20260906071204 22 295 0.0 1.6 0.00 0.00 0.00 89 997.6
20260906070704 22 226 0.0 1.6 0.00 0.00 0.00 89 997.7
20260906070205 22 6 0.0 4.8 0.00 0.00 0.00 89 997.6
20260906065704 22 6 0.0 4.8 0.00 0.00 0.00 89 997.6
20260906065205 22 301 0.0 1.6 0.00 0.00 0.00 89 997.6
20260906064204 22 299 0.0 1.6 0.00 0.00 0.00 89 997.5
20260906063704 22 293 0.0 1.6 0.00 0.00 0.00 89 997.5
20260906063205 22 328 0.0 3.2 0.00 0.00 0.00 89 997.6
20260906061704 22 15 0.0 4.8 0.00 0.00 0.00 88 997.5
20260906061204 22 286 0.0 4.8 0.00 0.00 0.00 88 997.5
20260906060704 23 292 1.6 4.8 0.00 0.00 0.00 88 997.6
20260906060204 23 37 0.0 3.2 0.00 0.00 0.00 88 997.6
20260906055704 23 294 0.0 4.8 0.00 0.00 0.00 88 997.6
20260906054704 23 220 0.0 4.8 0.00 0.00 0.00 88 997.6
20260906054204 23 297 1.6 4.8 0.00 0.00 0.00 88 997.5
20260906053704 23 290 0.0 4.8 0.00 0.00 0.00 88 997.6
20260906052705 23 274 0.0 4.8 0.00 0.00 0.00 88 997.5
20260906052204 23 302 0.0 4.8 0.00 0.00 0.00 88 997.4
20260906051704 23 358 0.0 1.6 0.00 0.00 0.00 88 997.4
20260906051204 23 280 0.0 8.0 0.00 0.00 0.00 88 997.3
20260906050705 22 280 0.0 8.0 0.00 0.00 0.00 88 997.3
20260906050204 22 318 1.6 4.8 0.00 0.00 0.00 88 997.3
20260906045704 22 340 0.0 4.8 0.00 0.00 0.00 88 997.3
20260906045204 22 95 0.0 4.8 0.00 0.00 0.00 88 997.2
20260906044204 22 329 0.0 3.2 0.00 0.00 0.00 88 997.1
20260906043204 22 319 1.6 9.7 0.00 0.00 0.00 88 996.8
20260906042704 22 297 1.6 8.0 0.00 0.00 0.00 88 996.7
20260906042203 22 276 0.0 3.2 0.00 0.00 0.00 88 996.6
20260906041204 22 273 1.6 4.8 0.00 0.00 0.00 87 996.5
20260906040703 22 283 0.0 3.2 0.00 0.00 0.00 87 996.5
20260906040204 22 29 0.0 3.2 0.00 0.00 0.00 87 996.6
20260906035704 23 256 0.0 3.2 0.00 0.00 0.00 87 996.5
20260906035204 23 248 0.0 1.6 0.00 0.00 0.00 87 996.5
20260906034704 23 278 0.0 4.8 0.00 0.00 0.00 87 996.5
20260906034204 23 248 0.0 4.8 0.00 0.00 0.00 86 996.4
20260906033704 23 344 0.0 4.8 0.00 0.00 0.00 86 996.3
20260906033203 23 8 0.0 4.8 0.00 0.00 0.00 86 996.4
20260906032703 23 25 0.0 8.0 0.00 0.00 0.00 86 996.4
20260906032204 23 108 0.0 8.0 0.00 0.00 0.00 86 996.6
20260906031704 23 232 1.6 4.8 0.00 0.00 0.00 86 996.6
20260906030703 23 108 0.0 3.2 0.00 0.00 0.00 86 996.5
20260906025703 23 269 1.6 4.8 0.00 0.00 0.00 85 996.5
20260906022704 23 63 1.6 11.3 0.00 0.00 0.00 85 996.4
20260906022206 23 28 0.0 11.3 0.00 0.00 0.00 85 996.4
20260906021206 23 251 0.0 11.3 0.00 0.00 0.00 85 996.5
20260906020706 23 241 1.6 11.3 0.00 0.00 0.00 85 996.5
20260906020205 23 270 0.0 11.3 0.00 0.00 0.00 86 996.5
20260906015705 23 18 0.0 11.3 0.00 0.00 0.00 86 996.6
20260906015206 23 281 1.6 11.3 0.00 0.00 0.00 86 996.7
20260906014706 23 255 1.6 8.0 0.00 0.00 0.00 86 996.7
20260906013705 23 324 0.0 8.0 0.00 0.00 0.00 86 996.6
20260906013206 23 282 3.2 11.3 0.00 0.00 0.00 86 996.5
20260906012705 23 299 3.2 16.1 0.00 0.00 0.00 86 996.6
20260906011205 22 298 1.6 8.0 0.00 0.00 0.00 87 996.6
20260906010205 22 24 3.2 12.9 0.00 0.00 0.00 86 996.4
20260906005705 23 266 3.2 11.3 0.00 0.00 0.00 87 996.4
20260906005206 23 279 0.0 11.3 0.00 0.00 0.00 86 996.2
20260906004705 23 18 3.2 9.7 0.00 0.00 0.00 86 996.2
20260906004205 23 239 0.0 11.3 0.00 0.00 0.00 86 996.0
20260906003706 23 322 1.6 11.3 0.00 0.00 0.00 86 996.0
20260906003205 23 288 4.8 11.3 0.00 0.00 0.00 86 996.0
20260906002705 23 138 3.2 16.1 0.00 0.00 0.00 86 996.0
20260906002206 23 353 3.2 16.1 0.00 0.00 0.00 86 995.9
20260906001705 23 251 1.6 12.9 0.00 0.00 0.00 86 995.9
20260906000705 23 312 4.8 16.1 0.00 0.00 0.00 85 995.9
20260906000206 23 313 1.6 16.1 0.00 0.00 0.00 85 995.9
20260905235706 23 44 1.6 9.7 0.00 0.00 0.00 85 995.9
20260905234706 23 312 3.2 11.3 0.00 0.00 0.00 85 995.9
20260905234206 23 301 3.2 11.3 0.00 0.00 0.00 84 995.9
20260905233706 23 271 1.6 9.7 0.00 0.00 0.00 84 995.9
20260905233205 24 254 1.6 14.5 0.00 0.00 0.00 83 995.8
20260905232706 24 11 3.2 14.5 0.00 0.00 0.00 82 995.8
20260905232205 25 294 1.6 12.9 0.00 0.00 0.00 82 995.6
20260905231705 25 89 1.6 11.3 0.00 0.00 0.00 81 995.5
20260905231205 25 79 1.6 11.3 0.00 0.00 0.00 80 995.5
20260905230705 25 78 0.0 12.9 0.00 0.00 0.00 81 995.5
20260905230205 25 255 3.2 14.5 0.00 0.00 0.00 80 995.5
20260905225705 25 327 3.2 14.5 0.00 0.00 0.00 80 995.5
20260905225205 26 316 1.6 12.9 0.00 0.00 0.00 79 995.5
20260905224705 26 3 4.8 14.5 0.00 0.00 0.00 78 995.4
20260905224205 26 294 3.2 14.5 0.00 0.00 0.00 78 995.3
20260905223705 26 9 1.6 14.5 0.00 0.00 0.00 77 995.2
20260905223205 27 355 4.8 11.3 0.00 0.00 0.00 76 995.1
20260905222205 27 287 1.6 16.1 0.00 0.00 0.00 75 995.1
20260905221205 27 288 3.2 12.9 0.00 0.00 0.00 75 995.2
20260905220205 27 289 0.0 11.3 0.00 0.00 0.00 74 995.1
20260905215205 27 267 1.6 11.3 0.00 0.00 0.00 74 995.2
20260905214205 27 252 1.6 4.8 0.00 0.00 0.00 73 995.1
20260905213705 27 355 1.6 8.0 0.00 0.00 0.00 73 995.2
20260905213204 27 275 1.6 9.7 0.00 0.00 0.00 73 995.1
20260905212705 27 302 1.6 9.7 0.00 0.00 0.00 73 995.1
20260905212205 27 200 3.2 8.0 0.00 0.00 0.00 74 995.1
20260905211705 27 17 0.0 8.0 0.00 0.00 0.00 75 995.0
20260905210705 27 284 1.6 4.8 0.00 0.00 0.00 76 995.2
20260905205705 27 263 1.6 9.7 0.00 0.00 0.00 78 995.3
20260905205205 26 281 1.6 9.7 0.00 0.00 0.00 79 995.4
20260905204205 26 261 0.0 9.7 0.00 0.00 0.00 78 995.3
20260905203705 26 274 3.2 9.7 0.00 0.00 0.00 78 995.3
20260905203204 26 295 4.8 9.7 0.00 0.00 0.00 77 995.3
20260905202704 27 247 1.6 11.3 0.00 0.00 0.00 77 995.3
20260905202205 27 288 3.2 11.3 0.00 0.00 0.00 77 995.2
20260905201705 27 294 3.2 11.3 0.00 0.00 0.00 77 995.2
20260905201205 27 252 1.6 19.3 0.00 0.00 0.00 78 995.3
20260905200705 27 291 1.6 19.3 0.00 0.00 0.00 77 995.4
20260905200205 27 279 1.6 12.9 0.00 0.00 0.00 77 995.4
20260905195205 27 273 3.2 14.5 0.00 0.00 0.00 77 995.4
20260905194704 27 302 3.2 14.5 0.00 0.00 0.00 77 995.3
20260905194204 27 279 4.8 11.3 0.00 0.00 0.00 77 995.3
20260905193704 27 273 3.2 9.7 0.00 0.00 0.00 76 995.3
20260905193205 27 246 3.2 9.7 0.00 0.00 0.00 76 995.5
20260905192704 27 282 1.6 8.0 0.00 0.00 0.00 76 995.5
20260905192204 27 249 1.6 9.7 0.00 0.00 0.00 76 995.5
20260905191704 27 42 1.6 12.9 0.00 0.00 0.00 76 995.5
20260905191204 27 294 3.2 12.9 0.00 0.00 0.00 76 995.5
20260905190204 27 299 3.2 11.3 0.00 0.00 0.00 75 995.5
20260905185704 27 262 1.6 12.9 0.00 0.00 0.00 76 995.5
20260905185204 28 290 4.8 12.9 0.00 0.00 0.00 76 995.4
20260905184704 27 356 3.2 11.3 0.00 0.00 0.00 75 995.5
20260905184204 28 296 3.2 9.7 0.00 0.00 0.00 74 995.6
20260905183704 28 288 1.6 9.7 0.00 0.00 0.00 74 995.6
20260905183204 28 273 1.6 11.3 0.00 0.00 0.00 73 995.6
20260905182704 28 253 3.2 11.3 0.00 0.00 0.00 75 995.7
20260905181704 28 348 1.6 9.7 0.00 0.00 0.00 74 995.5
20260905181204 28 37 0.0 8.0 0.00 0.00 0.00 72 995.4
20260905180704 28 279 1.6 11.3 0.00 0.00 0.00 72 995.4
20260905180205 28 260 3.2 11.3 0.00 0.00 0.00 74 995.4
20260905175704 28 63 1.6 11.3 0.00 0.00 0.00 73 995.4
20260905175204 29 276 1.6 8.0 0.00 0.00 0.00 71 995.3
20260905174204 28 287 1.6 11.3 0.00 0.00 0.00 73 995.4
20260905173205 28 293 1.6 11.3 0.00 0.00 0.00 73 995.4
20260905172204 28 284 3.2 9.7 0.00 0.00 0.00 74 995.4
20260905171704 29 248 3.2 8.0 0.00 0.00 0.00 73 995.4
20260905171204 29 270 1.6 9.7 0.00 0.00 0.00 74 995.4
20260905170704 28 338 1.6 9.7 0.00 0.00 0.00 75 995.3
20260905165704 28 315 1.6 11.3 0.00 0.00 0.00 78 995.6
20260905165204 28 312 3.2 11.3 0.00 0.00 0.00 76 995.6
20260905164704 28 286 3.2 9.7 0.00 0.00 0.00 76 995.5
20260905164204 28 258 3.2 11.3 0.00 0.00 0.00 76 995.6
20260905163704 28 268 3.2 11.3 0.00 0.00 0.00 74 995.4
20260905163204 29 256 0.0 8.0 0.00 0.00 0.00 74 995.4
20260905162704 29 301 1.6 9.7 0.00 0.00 0.00 74 995.5
20260905162204 29 282 1.6 9.7 0.00 0.00 0.00 73 995.5
20260905161704 30 327 1.6 9.7 0.00 0.00 0.00 72 995.5
20260905161204 29 87 0.0 8.0 0.00 0.00 0.00 74 995.5
20260905160703 29 330 0.0 8.0 0.00 0.00 0.00 73 995.4
20260905160204 28 10 1.6 8.0 0.00 0.00 0.00 74 995.4
20260905155703 28 333 1.6 9.7 0.00 0.00 0.00 75 995.4
20260905155204 28 307 1.6 9.7 0.00 0.00 0.00 75 995.3
20260905154703 28 37 0.0 11.3 0.00 0.00 0.00 75 995.3
20260905153704 28 31 1.6 8.0 0.00 0.00 0.00 76 995.2
20260905153203 28 323 1.6 8.0 0.00 0.00 0.00 76 995.2
20260905152704 28 287 1.6 4.8 0.00 0.00 0.00 76 995.2
20260905151203 27 80 1.6 4.8 0.00 0.00 0.00 78 995.1
20260905150203 27 339 1.6 9.7 0.00 0.00 0.00 80 995.0
20260905145703 27 345 1.6 4.8 0.00 0.00 0.00 81 995.1
20260905145204 27 259 1.6 11.3 0.00 0.00 0.00 81 995.1
20260905144703 27 279 1.6 11.3 0.00 0.00 0.00 81 995.0
20260905144204 27 283 3.2 9.7 0.00 0.00 0.00 82 995.0
20260905143704 27 307 3.2 11.3 0.00 0.00 0.00 81 994.9
20260905143204 27 259 1.6 11.3 0.00 0.00 0.00 81 994.9
20260905142703 26 320 0.0 9.7 0.00 0.00 0.00 83 994.9
20260905142204 26 281 3.2 9.7 0.00 0.00 0.00 83 994.9
20260905141706 26 287 1.6 8.0 0.00 0.00 0.00 84 994.7
20260905141206 26 327 1.6 12.9 0.00 0.00 0.00 86 994.7
20260905140706 26 291 3.2 12.9 0.00 0.00 0.00 86 994.7
20260905135205 25 277 1.6 11.3 0.00 0.00 0.00 90 994.7
20260905134706 25 265 1.6 11.3 0.00 0.00 0.00 91 994.6
20260905134206 24 310 3.2 9.7 0.00 0.00 0.00 91 994.8
20260905133706 24 293 1.6 8.0 0.00 0.00 0.00 91 994.9
20260905133206 24 289 1.6 8.0 0.00 0.00 0.00 91 995.0
20260905132705 24 287 1.6 9.7 0.00 0.00 0.00 91 995.1
20260905132205 24 273 1.6 9.7 0.00 0.00 0.00 91 995.1
20260905131705 24 282 4.8 9.7 0.00 0.00 0.00 91 994.9
20260905131205 24 296 1.6 9.7 0.00 0.00 0.00 92 994.7
20260905130705 24 295 0.0 4.8 0.00 0.00 0.00 92 994.7
20260905130205 24 289 0.0 8.0 0.00 0.00 0.00 92 994.5
20260905125705 23 280 1.6 8.0 0.00 0.00 0.00 92 994.4
20260905124705 23 355 1.6 8.0 0.00 0.00 0.00 92 994.4
20260905124205 23 90 1.6 8.0 0.00 0.00 0.00 92 994.4
20260905123705 24 246 1.6 4.8 0.00 0.00 0.00 92 994.2
20260905123205 24 320 0.0 8.0 0.00 0.00 0.00 92 994.1
20260905122705 24 332 0.0 8.0 0.00 0.00 0.00 92 994.1
20260905121705 24 266 1.6 4.8 0.00 0.00 0.00 91 994.0